This demonstration page uses our WeatherBlox Daily Observations layout. Learn more.

Hourly Observations for February 10, 2019

Temp ( °F °C ) Dew Point ( °F °C ) Humidity (%) Winds ( mph kmh ) Pressure ( in mb ) Visibility ( mi km ) Precip ( " mm )
12:15 am 00:15 Clear 23 -5 19 -7 86 86 Calm 30.74 1041 10 16.09344 0 0
12:35 am 00:35 Clear 23 -5 19 -7 86 86 Calm 30.74 1041 10 16.09344 0 0
12:55 am 00:55 Clear 21 -6 19 -7 93 93 Calm 30.77 1042 10 16.09344 0 0
1:15 am 01:15 Clear 23 -5 19 -7 86 86 Calm 30.77 1042 10 16.09344 0 0
1:35 am 01:35 Clear 21 -6 18 -8 86 86 Calm 30.77 1042 10 16.09344 0 0
1:55 am 01:55 Clear 21 -6 18 -8 86 86 Calm 30.77 1042 10 16.09344 0 0
2:15 am 02:15 Clear 21 -6 18 -8 86 86 WSW 3 6 30.77 1042 10 16.09344 0 0
2:35 am 02:35 Clear 23 -5 18 -8 80 80 Calm 30.77 1042 10 16.09344 0 0
2:55 am 02:55 Clear 21 -6 18 -8 86 86 Calm 30.77 1042 10 16.09344 0 0
3:15 am 03:15 Clear 19 -7 19 -7 100 100 Calm 30.77 1042 10 16.09344 0 0
3:35 am 03:35 Clear 21 -6 19 -7 93 93 Calm 30.77 1042 10 16.09344 0 0
3:55 am 03:55 Clear 19 -7 19 -7 100 100 Calm 30.77 1042 10 16.09344 0 0
4:15 am 04:15 Clear 19 -7 18 -8 93 93 Calm 30.77 1042 10 16.09344 0 0
4:35 am 04:35 Clear 21 -6 19 -7 93 93 Calm 30.77 1042 10 16.09344 0 0
4:55 am 04:55 Clear 21 -6 19 -7 93 93 Calm 30.77 1042 10 16.09344 0 0
5:15 am 05:15 Clear 19 -7 18 -8 93 93 Calm 30.74 1041 10 16.09344 0 0
5:35 am 05:35 Clear 19 -7 18 -8 93 93 Calm 30.74 1041 10 16.09344 0 0
5:55 am 05:55 Clear 19 -7 18 -8 93 93 Calm 30.74 1041 10 16.09344 0 0
6:15 am 06:15 Clear 19 -7 18 -8 93 93 Calm 30.74 1041 10 16.09344 0 0
6:35 am 06:35 Clear 18 -8 18 -8 100 100 Calm 30.74 1041 10 16.09344 0 0
6:55 am 06:55 Clear 18 -8 18 -8 100 100 Calm 30.74 1041 10 16.09344 0 0
7:15 am 07:15 Sunny 18 -8 18 -8 100 100 Calm 30.74 1041 10 16.09344 0 0
7:35 am 07:35 Sunny 18 -8 18 -8 100 100 Calm 30.74 1041 10 16.09344 0 0
7:55 am 07:55 Sunny 19 -7 19 -7 100 100 Calm 30.74 1041 10 16.09344 0 0
8:15 am 08:15 Sunny 23 -5 19 -7 86 86 Calm 30.74 1041 10 16.09344 0 0
8:35 am 08:35 Sunny 25 -4 19 -7 80 80 Calm 30.74 1041 10 16.09344 0 0
8:55 am 08:55 Sunny 28 -2 21 -6 74 74 Calm 30.71 1040 10 16.09344 0 0
9:15 am 09:15 Sunny 28 -2 21 -6 74 74 Calm 30.71 1040 10 16.09344 0 0
9:35 am 09:35 Sunny 30 -1 19 -7 64 64 Calm 30.71 1040 10 16.09344 0 0
9:55 am 09:55 Sunny 32 0 18 -8 55 55 S 8 13 30.71 1040 10 16.09344 0 0
10:15 am 10:15 Sunny 32 0 16 -9 51 51 S 7 11 30.68 1039 10 16.09344 0 0
10:35 am 10:35 Sunny 32 0 16 -9 51 51 S 8 13 30.65 1038 10 16.09344 0 0
10:55 am 10:55 Sunny 34 1 18 -8 51 51 S 10 17 30.65 1038 10 16.09344 0 0
11:15 am 11:15 Sunny 34 1 18 -8 51 51 S 10 17 30.65 1038 10 16.09344 0 0
11:35 am 11:35 Sunny 34 1 18 -8 51 51 S 8 13 30.62 1037 10 16.09344 0 0
11:55 am 11:55 Sunny 36 2 18 -8 48 48 S 12 19 30.62 1037 10 16.09344 0 0
12:15 pm 12:15 Sunny 36 2 18 -8 48 48 S 8 13 30.59 1036 10 16.09344 0 0
12:35 pm 12:35 Sunny 36 2 18 -8 48 48 SW 8 13 30.59 1036 10 16.09344 0 0
12:55 pm 12:55 Sunny 36 2 18 -8 48 48 SSW 8 13 30.59 1036 10 16.09344 0 0
1:15 pm 13:15 Sunny 37 3 18 -8 45 45 SSE 7 11 30.56 1035 10 16.09344 0 0
1:35 pm 13:35 Sunny 37 3 18 -8 45 45 S 8 13 30.56 1035 10 16.09344 0 0
1:55 pm 13:55 Partly Cloudy 37 3 18 -8 45 45 SSW 6 9 30.56 1035 10 16.09344 0 0
2:15 pm 14:15 Partly Cloudy 37 3 18 -8 45 45 SSW 8 13 30.53 1034 10 16.09344 0 0
2:35 pm 14:35 Partly Cloudy 39 4 19 -7 45 45 S 7 11 30.53 1034 10 16.09344 0 0
2:55 pm 14:55 Partly Cloudy 37 3 18 -8 45 45 SSW 7 11 30.53 1034 10 16.09344 0 0
3:15 pm 15:15 Mostly Cloudy 37 3 18 -8 45 45 SW 9 15 30.53 1034 10 16.09344 0 0
3:35 pm 15:35 Cloudy 37 3 18 -8 45 45 SSW 8 13 30.53 1034 10 16.09344 0 0
3:55 pm 15:55 Cloudy 37 3 18 -8 45 45 SSW 6 9 30.5 1033 10 16.09344 0 0
4:15 pm 16:15 Cloudy 37 3 18 -8 45 45 Calm 30.5 1033 10 16.09344 0 0
4:35 pm 16:35 Cloudy 37 3 18 -8 45 45 SSW 7 11 30.5 1033 10 16.09344 0 0
4:55 pm 16:55 Cloudy 37 3 18 -8 45 45 SW 3 6 30.48 1032 10 16.09344 0 0
5:15 pm 17:15 Cloudy 37 3 19 -7 48 48 SSW 3 6 30.48 1032 10 16.09344 0 0
5:35 pm 17:35 Cloudy 37 3 19 -7 48 48 S 5 7 30.48 1032 10 16.09344 0 0
5:55 pm 17:55 Cloudy 37 3 19 -7 48 48 S 5 7 30.48 1032 10 16.09344 0 0
6:15 pm 18:15 Cloudy 37 3 19 -7 48 48 S 3 6 30.48 1032 10 16.09344 0 0
6:35 pm 18:35 Cloudy 37 3 18 -8 45 45 S 3 6 30.48 1032 10 16.09344 0 0
6:55 pm 18:55 Cloudy 37 3 19 -7 48 48 S 3 6 30.48 1032 10 16.09344 0 0
7:15 pm 19:15 Cloudy 36 2 19 -7 52 52 S 5 7 30.48 1032 10 16.09344 0 0
7:35 pm 19:35 Cloudy 36 2 19 -7 52 52 Calm 30.45 1031 10 16.09344 0 0
7:55 pm 19:55 Cloudy 36 2 19 -7 52 52 S 3 6 30.45 1031 10 16.09344 0 0
8:15 pm 20:15 Cloudy 36 2 21 -6 56 56 SW 12 19 30.45 1031 10 16.09344 0 0
8:35 pm 20:35 Cloudy 36 2 25 -4 65 65 SSW 6 9 30.45 1031 10 16.09344 0 0
8:55 pm 20:55 Cloudy 36 2 23 -5 60 60 SSW 6 9 30.45 1031 10 16.09344 0 0
9:15 pm 21:15 Cloudy 36 2 23 -5 60 60 SW 7 11 30.45 1031 10 16.09344 0 0
9:35 pm 21:35 Cloudy 36 2 25 -4 65 65 SW 13 20 30.42 1030 7 11.265408 0 0
9:55 pm 21:55 Cloudy 34 1 30 -1 87 87 WSW 3 6 30.42 1030 4 6.437376 0 0
10:15 pm 22:15 Cloudy 32 0 32 0 100 100 Calm 30.42 1030 1.75 2.816352 0 0
10:35 pm 22:35 Cloudy 32 0 32 0 100 100 Calm 30.42 1030 1.75 2.816352 0 0
10:55 pm 22:55 Cloudy 32 0 32 0 100 100 SSW 5 7 30.39 1029 3 4.828032 0 0
11:15 pm 23:15 Cloudy 32 0 32 0 100 100 S 3 6 30.39 1029 4 6.437376 0 0
11:35 pm 23:35 Cloudy 32 0 32 0 100 100 S 5 7 30.36 1028 5 8.04672 0 0
11:55 pm 23:55 Cloudy 32 0 32 0 100 100 S 5 7 30.36 1028 5 8.04672 0 0

Powered by AerisWeather